| time (UTC) | temp C | wind direction | speed KPH | gust KPH | rain 1hr cm | rain 24hr cm | rain mn cm | humidity % | barometer mb |
| 20260504050516 | 9 | 110 | 3.2 | 8.0 | 0.00 | 0.03 | 0.00 | 47 | 1012.8 |
| 20260504050016 | 9 | 110 | 3.2 | 4.8 | 0.00 | 0.03 | 0.00 | 47 | 1012.8 |
| 20260504045516 | 9 | 91 | 3.2 | 4.8 | 0.00 | 0.03 | 0.00 | 47 | 1012.8 |
| 20260504045016 | 9 | 93 | 1.6 | 4.8 | 0.00 | 0.03 | 0.00 | 47 | 1012.9 |
| 20260504044516 | 9 | 89 | 1.6 | 4.8 | 0.00 | 0.03 | 0.00 | 47 | 1012.9 |
| 20260504044016 | 9 | 89 | 1.6 | 4.8 | 0.00 | 0.03 | 0.00 | 47 | 1013.0 |
| 20260504043516 | 9 | 73 | 1.6 | 1.6 | 0.00 | 0.03 | 0.00 | 47 | 1013.0 |
| 20260504043016 | 9 | 75 | 1.6 | 3.2 | 0.00 | 0.03 | 0.00 | 47 | 1013.0 |
| 20260504042516 | 9 | 56 | 1.6 | 4.8 | 0.00 | 0.03 | 0.00 | 47 | 1013.0 |
| 20260504042016 | 9 | 58 | 1.6 | 4.8 | 0.00 | 0.03 | 0.00 | 47 | 1012.9 |
| 20260504041516 | 9 | 81 | 3.2 | 4.8 | 0.00 | 0.03 | 0.00 | 47 | 1012.8 |
| 20260504041016 | 9 | 98 | 1.6 | 6.4 | 0.00 | 0.03 | 0.00 | 47 | 1012.9 |
| 20260504040516 | 9 | 77 | 1.6 | 3.2 | 0.00 | 0.03 | 0.00 | 47 | 1012.9 |
| 20260504040016 | 9 | 73 | 1.6 | 4.8 | 0.00 | 0.03 | 0.00 | 48 | 1012.9 |
| 20260504035516 | 9 | 87 | 1.6 | 4.8 | 0.00 | 0.03 | 0.00 | 48 | 1013.0 |
| 20260504035016 | 9 | 79 | 1.6 | 3.2 | 0.00 | 0.03 | 0.00 | 48 | 1012.9 |
| 20260504034516 | 9 | 82 | 1.6 | 3.2 | 0.00 | 0.03 | 0.00 | 48 | 1012.9 |
| 20260504034016 | 9 | 86 | 3.2 | 6.4 | 0.00 | 0.03 | 0.00 | 48 | 1013.1 |
| 20260504033516 | 10 | 102 | 4.8 | 6.4 | 0.00 | 0.03 | 0.00 | 49 | 1013.0 |
| 20260504033016 | 10 | 89 | 3.2 | 6.4 | 0.00 | 0.03 | 0.00 | 49 | 1013.0 |
| 20260504032516 | 10 | 96 | 1.6 | 4.8 | 0.00 | 0.03 | 0.00 | 49 | 1013.0 |
| 20260504032016 | 10 | 90 | 1.6 | 3.2 | 0.00 | 0.03 | 0.00 | 49 | 1013.0 |
| 20260504031516 | 10 | 105 | 1.6 | 4.8 | 0.00 | 0.03 | 0.00 | 50 | 1013.0 |
| 20260504031016 | 10 | 77 | 1.6 | 3.2 | 0.00 | 0.03 | 0.00 | 50 | 1013.1 |
| 20260504030516 | 10 | 76 | 1.6 | 8.0 | 0.00 | 0.03 | 0.00 | 50 | 1013.1 |
| 20260504030016 | 10 | 90 | 0.0 | 3.2 | 0.00 | 0.03 | 0.00 | 51 | 1013.1 |
| 20260504025516 | 10 | 99 | 0.0 | 1.6 | 0.00 | 0.03 | 0.00 | 51 | 1013.0 |
| 20260504025016 | 10 | 96 | 1.6 | 4.8 | 0.00 | 0.03 | 0.00 | 52 | 1013.0 |
| 20260504024516 | 10 | 95 | 3.2 | 4.8 | 0.00 | 0.03 | 0.00 | 52 | 1013.1 |
| 20260504024016 | 10 | 102 | 3.2 | 4.8 | 0.00 | 0.03 | 0.00 | 53 | 1013.2 |
| 20260504023516 | 10 | 75 | 4.8 | 8.0 | 0.00 | 0.03 | 0.00 | 54 | 1013.2 |
| 20260504023016 | 10 | 100 | 8.0 | 11.3 | 0.00 | 0.03 | 0.00 | 54 | 1013.3 |
| 20260504022516 | 10 | 113 | 8.0 | 14.5 | 0.00 | 0.03 | 0.00 | 55 | 1013.2 |
| 20260504022016 | 10 | 91 | 9.7 | 14.5 | 0.00 | 0.03 | 0.00 | 56 | 1013.3 |
| 20260504021516 | 10 | 88 | 8.0 | 14.5 | 0.00 | 0.03 | 0.00 | 56 | 1013.3 |
| 20260504021016 | 10 | 89 | 6.4 | 9.7 | 0.00 | 0.03 | 0.00 | 57 | 1013.2 |
| 20260504020516 | 10 | 84 | 8.0 | 11.3 | 0.00 | 0.03 | 0.00 | 57 | 1013.1 |
| 20260504020016 | 10 | 100 | 8.0 | 12.9 | 0.00 | 0.03 | 0.00 | 57 | 1013.1 |
| 20260504015516 | 10 | 102 | 6.4 | 11.3 | 0.00 | 0.03 | 0.00 | 58 | 1013.1 |
| 20260504015016 | 10 | 110 | 4.8 | 11.3 | 0.00 | 0.03 | 0.00 | 58 | 1013.1 |
| 20260504014516 | 10 | 91 | 3.2 | 9.7 | 0.00 | 0.03 | 0.00 | 59 | 1013.1 |
| 20260504014016 | 10 | 110 | 4.8 | 6.4 | 0.00 | 0.03 | 0.00 | 59 | 1013.1 |
| 20260504013516 | 10 | 84 | 3.2 | 6.4 | 0.00 | 0.03 | 0.00 | 59 | 1013.1 |
| 20260504013016 | 10 | 121 | 3.2 | 6.4 | 0.00 | 0.03 | 0.00 | 59 | 1013.1 |
| 20260504012516 | 10 | 53 | 3.2 | 6.4 | 0.00 | 0.03 | 0.00 | 59 | 1013.1 |
| 20260504012016 | 10 | 98 | 4.8 | 6.4 | 0.00 | 0.03 | 0.00 | 59 | 1013.2 |
| 20260504011517 | 10 | 94 | 4.8 | 9.7 | 0.00 | 0.03 | 0.00 | 58 | 1013.2 |
| 20260504011016 | 10 | 69 | 4.8 | 8.0 | 0.00 | 0.03 | 0.00 | 58 | 1013.3 |
| 20260504010516 | 10 | 96 | 6.4 | 11.3 | 0.00 | 0.03 | 0.00 | 58 | 1013.3 |
| 20260504010017 | 10 | 71 | 6.4 | 11.3 | 0.00 | 0.03 | 0.00 | 58 | 1013.3 |
| 20260504005516 | 10 | 97 | 6.4 | 9.7 | 0.00 | 0.03 | 0.00 | 58 | 1013.3 |
| 20260504005017 | 10 | 101 | 6.4 | 9.7 | 0.00 | 0.03 | 0.00 | 59 | 1013.4 |
| 20260504004517 | 10 | 70 | 6.4 | 11.3 | 0.00 | 0.03 | 0.00 | 60 | 1013.4 |
| 20260504004017 | 10 | 92 | 6.4 | 11.3 | 0.00 | 0.03 | 0.00 | 61 | 1013.4 |
| 20260504003517 | 10 | 72 | 6.4 | 11.3 | 0.00 | 0.03 | 0.00 | 62 | 1013.4 |
| 20260504003017 | 10 | 60 | 4.8 | 9.7 | 0.00 | 0.03 | 0.00 | 63 | 1013.4 |
| 20260504002517 | 10 | 91 | 4.8 | 8.0 | 0.00 | 0.03 | 0.00 | 64 | 1013.5 |
| 20260504002017 | 10 | 77 | 3.2 | 6.4 | 0.00 | 0.03 | 0.00 | 65 | 1013.4 |
| 20260504001517 | 10 | 60 | 1.6 | 6.4 | 0.00 | 0.03 | 0.00 | 66 | 1013.5 |
| 20260504001017 | 10 | 49 | 1.6 | 4.8 | 0.00 | 0.03 | 0.00 | 67 | 1013.4 |
| 20260504000517 | 10 | 68 | 1.6 | 4.8 | 0.00 | 0.03 | 0.00 | 67 | 1013.4 |
| 20260504000017 | 10 | 92 | 3.2 | 4.8 | 0.00 | 0.03 | 0.00 | 68 | 1013.3 |
| 20260503235517 | 10 | 160 | 3.2 | 6.4 | 0.00 | 0.03 | 0.00 | 69 | 1013.0 |
| 20260503235017 | 10 | 103 | 3.2 | 9.7 | 0.00 | 0.03 | 0.00 | 70 | 1013.3 |
| 20260503234517 | 10 | 60 | 1.6 | 6.4 | 0.00 | 0.03 | 0.00 | 70 | 1013.5 |
| 20260503234017 | 10 | 88 | 0.0 | 3.2 | 0.00 | 0.03 | 0.00 | 71 | 1013.3 |
| 20260503233517 | 10 | 107 | 1.6 | 3.2 | 0.00 | 0.03 | 0.00 | 71 | 1013.3 |
| 20260503233017 | 10 | 95 | 3.2 | 6.4 | 0.00 | 0.03 | 0.00 | 71 | 1013.3 |
| 20260503232517 | 10 | 102 | 4.8 | 8.0 | 0.00 | 0.03 | 0.00 | 71 | 1013.4 |
| 20260503232017 | 10 | 98 | 3.2 | 6.4 | 0.00 | 0.03 | 0.00 | 72 | 1013.4 |
| 20260503231517 | 10 | 82 | 3.2 | 6.4 | 0.00 | 0.03 | 0.00 | 72 | 1013.4 |
| 20260503231017 | 10 | 86 | 1.6 | 4.8 | 0.00 | 0.03 | 0.00 | 72 | 1013.4 |
| 20260503230517 | 10 | 108 | 1.6 | 6.4 | 0.00 | 0.03 | 0.00 | 72 | 1013.4 |
| 20260503230017 | 10 | 106 | 3.2 | 3.2 | 0.00 | 0.03 | 0.00 | 72 | 1013.4 |
| 20260503225517 | 10 | 88 | 3.2 | 6.4 | 0.00 | 0.03 | 0.00 | 72 | 1013.5 |
| 20260503225017 | 10 | 113 | 3.2 | 4.8 | 0.00 | 0.03 | 0.00 | 72 | 1013.5 |
| 20260503224517 | 10 | 87 | 4.8 | 6.4 | 0.00 | 0.03 | 0.00 | 72 | 1013.6 |
| 20260503224017 | 10 | 95 | 4.8 | 8.0 | 0.00 | 0.03 | 0.00 | 72 | 1013.6 |
| 20260503223517 | 10 | 77 | 4.8 | 8.0 | 0.00 | 0.03 | 0.00 | 73 | 1013.5 |
| 20260503223017 | 10 | 86 | 4.8 | 8.0 | 0.00 | 0.03 | 0.00 | 73 | 1013.7 |
| 20260503222517 | 10 | 56 | 3.2 | 8.0 | 0.00 | 0.03 | 0.00 | 74 | 1013.6 |
| 20260503222017 | 10 | 64 | 4.8 | 6.4 | 0.00 | 0.03 | 0.00 | 74 | 1013.6 |
| 20260503221517 | 10 | 49 | 4.8 | 8.0 | 0.00 | 0.03 | 0.00 | 74 | 1013.6 |
| 20260503221017 | 10 | 64 | 6.4 | 12.9 | 0.00 | 0.03 | 0.00 | 73 | 1013.6 |
| 20260503220517 | 10 | 58 | 6.4 | 12.9 | 0.00 | 0.03 | 0.00 | 73 | 1013.5 |
| 20260503220017 | 10 | 75 | 8.0 | 12.9 | 0.00 | 0.03 | 0.03 | 73 | 1013.5 |
| 20260503215517 | 10 | 102 | 9.7 | 12.9 | 0.00 | 0.03 | 0.03 | 73 | 1013.4 |
| 20260503215017 | 11 | 122 | 9.7 | 12.9 | 0.00 | 0.03 | 0.03 | 73 | 1013.3 |
| 20260503214517 | 11 | 95 | 9.7 | 14.5 | 0.00 | 0.03 | 0.03 | 73 | 1013.3 |
| 20260503214017 | 11 | 102 | 8.0 | 14.5 | 0.00 | 0.03 | 0.03 | 73 | 1013.4 |
| 20260503213517 | 11 | 94 | 6.4 | 9.7 | 0.00 | 0.03 | 0.03 | 73 | 1013.3 |
| 20260503213017 | 11 | 96 | 4.8 | 8.0 | 0.00 | 0.03 | 0.03 | 73 | 1013.2 |
| 20260503212517 | 11 | 96 | 4.8 | 8.0 | 0.00 | 0.03 | 0.03 | 73 | 1013.1 |
| 20260503212017 | 11 | 92 | 4.8 | 8.0 | 0.00 | 0.03 | 0.03 | 74 | 1013.1 |
| 20260503211517 | 11 | 98 | 4.8 | 8.0 | 0.00 | 0.03 | 0.03 | 74 | 1013.1 |
| 20260503211017 | 11 | 103 | 4.8 | 6.4 | 0.00 | 0.03 | 0.03 | 74 | 1013.1 |
| 20260503210517 | 11 | 105 | 6.4 | 9.7 | 0.00 | 0.03 | 0.03 | 74 | 1013.0 |
| 20260503210017 | 11 | 101 | 6.4 | 9.7 | 0.00 | 0.03 | 0.03 | 74 | 1013.0 |
| 20260503205517 | 11 | 112 | 4.8 | 9.7 | 0.00 | 0.03 | 0.03 | 74 | 1013.0 |
| 20260503205017 | 11 | 101 | 4.8 | 8.0 | 0.00 | 0.03 | 0.03 | 73 | 1013.0 |
| 20260503204517 | 11 | 77 | 4.8 | 8.0 | 0.00 | 0.03 | 0.03 | 74 | 1013.0 |
| 20260503204017 | 11 | 83 | 4.8 | 6.4 | 0.00 | 0.03 | 0.03 | 74 | 1013.0 |
| 20260503203517 | 11 | 91 | 6.4 | 9.7 | 0.00 | 0.03 | 0.03 | 75 | 1013.0 |
| 20260503203017 | 11 | 113 | 6.4 | 9.7 | 0.00 | 0.03 | 0.03 | 75 | 1013.0 |
| 20260503202517 | 11 | 85 | 6.4 | 8.0 | 0.00 | 0.03 | 0.03 | 75 | 1012.9 |
| 20260503202017 | 11 | 88 | 6.4 | 9.7 | 0.00 | 0.03 | 0.03 | 75 | 1012.8 |
| 20260503201517 | 11 | 110 | 6.4 | 11.3 | 0.00 | 0.03 | 0.03 | 75 | 1012.7 |
| 20260503201017 | 11 | 87 | 6.4 | 11.3 | 0.00 | 0.03 | 0.03 | 75 | 1012.7 |
| 20260503200517 | 11 | 107 | 6.4 | 11.3 | 0.00 | 0.03 | 0.03 | 75 | 1012.7 |
| 20260503200017 | 11 | 83 | 6.4 | 9.7 | 0.00 | 0.03 | 0.03 | 75 | 1012.5 |
| 20260503195518 | 11 | 94 | 4.8 | 8.0 | 0.00 | 0.03 | 0.03 | 75 | 1012.5 |
| 20260503195018 | 11 | 98 | 4.8 | 9.7 | 0.00 | 0.03 | 0.03 | 75 | 1012.5 |
| 20260503194518 | 11 | 110 | 6.4 | 11.3 | 0.00 | 0.03 | 0.03 | 75 | 1012.3 |
| 20260503194018 | 12 | 108 | 8.0 | 12.9 | 0.00 | 0.03 | 0.03 | 74 | 1012.2 |
| 20260503193518 | 12 | 132 | 6.4 | 14.5 | 0.00 | 0.03 | 0.03 | 73 | 1012.1 |
| 20260503193018 | 12 | 152 | 4.8 | 12.9 | 0.00 | 0.03 | 0.03 | 73 | 1012.0 |
| 20260503192018 | 12 | 155 | 6.4 | 9.7 | 0.00 | 0.03 | 0.03 | 71 | 1011.8 |
| 20260503191519 | 13 | 132 | 8.0 | 12.9 | 0.00 | 0.03 | 0.03 | 70 | 1011.8 |
| 20260503191018 | 13 | 149 | 11.3 | 19.3 | 0.00 | 0.03 | 0.03 | 69 | 1011.6 |
| 20260503190518 | 13 | 137 | 11.3 | 24.1 | 0.00 | 0.03 | 0.03 | 66 | 1011.5 |
| 20260503190018 | 14 | 129 | 9.7 | 12.9 | 0.00 | 0.03 | 0.03 | 64 | 1011.3 |
| 20260503185018 | 15 | 108 | 9.7 | 16.1 | 0.00 | 0.03 | 0.03 | 61 | 1011.1 |
| 20260503184518 | 15 | 103 | 11.3 | 16.1 | 0.00 | 0.03 | 0.03 | 59 | 1010.9 |
| 20260503183518 | 16 | 104 | 12.9 | 16.1 | 0.00 | 0.03 | 0.03 | 57 | 1010.8 |
| 20260503183018 | 16 | 101 | 12.9 | 20.9 | 0.00 | 0.03 | 0.03 | 56 | 1010.9 |
| 20260503182518 | 16 | 103 | 14.5 | 20.9 | 0.00 | 0.03 | 0.03 | 57 | 1010.9 |
| 20260503182018 | 16 | 113 | 16.1 | 24.1 | 0.00 | 0.05 | 0.03 | 55 | 1010.9 |
| 20260503181518 | 16 | 100 | 17.7 | 27.4 | 0.00 | 0.05 | 0.03 | 54 | 1010.9 |
| 20260503181018 | 16 | 112 | 19.3 | 25.7 | 0.00 | 0.05 | 0.03 | 53 | 1010.9 |
| 20260503180518 | 16 | 109 | 20.9 | 29.0 | 0.00 | 0.05 | 0.03 | 52 | 1010.9 |
| 20260503180018 | 16 | 91 | 20.9 | 33.8 | 0.00 | 0.05 | 0.03 | 51 | 1010.8 |
| 20260503175518 | 17 | 112 | 19.3 | 30.6 | 0.00 | 0.05 | 0.03 | 51 | 1010.8 |
| 20260503175018 | 17 | 115 | 20.9 | 33.8 | 0.00 | 0.05 | 0.03 | 54 | 1010.8 |
| 20260503174518 | 17 | 122 | 17.7 | 29.0 | 0.00 | 0.05 | 0.03 | 54 | 1010.8 |
| 20260503174018 | 17 | 115 | 16.1 | 25.7 | 0.00 | 0.05 | 0.03 | 56 | 1010.8 |
| 20260503173518 | 17 | 101 | 19.3 | 27.4 | 0.00 | 0.05 | 0.03 | 55 | 1010.8 |
| 20260503173018 | 17 | 98 | 14.5 | 32.2 | 0.00 | 0.05 | 0.03 | 54 | 1010.8 |
| 20260503172518 | 17 | 82 | 11.3 | 19.3 | 0.00 | 0.05 | 0.03 | 60 | 1010.8 |
| 20260503172018 | 16 | 96 | 12.9 | 19.3 | 0.00 | 0.05 | 0.03 | 59 | 1010.8 |
| 20260503171518 | 16 | 88 | 12.9 | 17.7 | 0.00 | 0.05 | 0.03 | 62 | 1010.8 |
| 20260503171018 | 17 | 97 | 12.9 | 25.7 | 0.00 | 0.05 | 0.03 | 58 | 1010.8 |
| 20260503170518 | 17 | 88 | 11.3 | 19.3 | 0.00 | 0.05 | 0.03 | 60 | 1010.7 |
| 20260503150518 | 16 | 101 | 17.7 | 24.1 | 0.00 | 0.08 | 0.03 | 62 | 1011.2 |
| 20260503131019 | 12 | 144 | 12.9 | 25.7 | 0.00 | 0.10 | 0.03 | 73 | 1012.9 |
| 20260503130519 | 14 | 140 | 9.7 | 24.1 | 0.00 | 0.10 | 0.03 | 70 | 1012.9 |
| 20260503110519 | 14 | 101 | 0.0 | 3.2 | 0.03 | 0.18 | 0.03 | 74 | 1013.8 |
| 20260503081520 | 11 | 1 | 1.6 | 4.8 | 0.00 | 0.15 | 0.00 | 58 | 1014.6 |
| 20260503081020 | 11 | 321 | 1.6 | 3.2 | 0.00 | 0.15 | 0.00 | 58 | 1014.7 |
| 20260503080520 | 11 | 11 | 1.6 | 3.2 | 0.00 | 0.15 | 0.00 | 58 | 1014.6 |
| 20260503072520 | 11 | 53 | 3.2 | 8.0 | 0.00 | 0.15 | 0.00 | 61 | 1014.8 |
| 20260503072020 | 11 | 47 | 1.6 | 4.8 | 0.00 | 0.15 | 0.00 | 60 | 1014.5 |
| 20260503071520 | 11 | 51 | 0.0 | 3.2 | 0.00 | 0.15 | 0.00 | 60 | 1014.4 |
| 20260503071020 | 11 | 51 | 0.0 | 3.2 | 0.00 | 0.15 | 0.00 | 59 | 1014.3 |
| 20260503070520 | 11 | 345 | 0.0 | 1.6 | 0.00 | 0.15 | 0.00 | 59 | 1014.2 |